SB KEPS @ AMSAT $ORB13178.N 2Line Orbital Elements 13178.AMSAT
HR AMSAT ORBITAL ELEMENTS FOR AMATEUR SATELLITES IN NASA FORMAT FROM WA5QGD FORT WORTH,TX June 27, 2013 BID: ORB13178.N
DECODE 2-LINE ELSETS WITH THE FOLLOWING KEY: 1 AAAAAU 00 0 0 BBBBB.BBBBBBBB .CCCCCCCC 00000-0 00000-0 0 DDDZ 2 AAAAA EEE.EEEE FFF.FFFF GGGGGGG HHH.HHHH III.IIII JJ.JJJJJJJJKKKKKZ KEY: A-CATALOGNUM B-EPOCHTIME C-DECAY D-ELSETNUM E-INCLINATION F-RAAN G-ECCENTRICITY H-ARGPERIGEE I-MNANOM J-MNMOTION K-ORBITNUM Z-CHECKSUM
TO ALL RADIO AMATEURS BT
AO-07 1 07530U 74089B 13178.50187512 -.00000025 00000-0 11302-3 0 7145 2 07530 101.4308 167.6334 0011388 268.1404 237.6877 12.53596767767078 FO-29 1 24278U 96046B 13172.20080899 .00000013 00000-0 47218-4 0 1394 2 24278 098.5555 230.2316 0351339 153.6341 242.7942 13.53002853831851 SO-33 1 25509U 98061B 13178.81381013 .00000127 00000-0 10760-4 0 5264 2 25509 031.4355 007.4533 0351460 250.9330 238.9694 14.29091843766413 RS-22 1 27939U 03042A 13178.70415372 .00000507 00000-0 10406-3 0 5338 2 27939 097.7984 006.0033 0013751 148.7931 211.4094 14.64489180520832 VO-52 1 28650U 05017B 13178.65642269 .00000663 00000-0 85490-4 0 4589 2 28650 097.5679 196.7219 0024654 243.7353 256.5543 14.83942151440634 HO-68 1 36122U 09072B 13178.76688351 -.00000044 00000-0 00000 0 0 6711 2 36122 100.3052 235.5520 0007391 333.9827 026.0901 13.16305094169808 UO-11 1 14781U 84021B 13178.17509955 .00000368 00000-0 54369-4 0 2145 2 14781 097.9025 239.3448 0007697 250.5970 109.4410 14.80925854575412 AO-16 1 20439U 90005D 13178.43313027 .00000059 00000-0 37669-4 0 7790 2 20439 098.4706 118.2227 0012037 125.9591 347.1960 14.32183818223705 LO-19 1 20442U 90005G 13178.46628267 .00000051 00000-0 34458-4 0 7135 2 20442 098.4398 120.0077 0013141 117.3600 336.5330 14.32394256223908 AO-27 1 22825U 93061C 13178.43863160 .00000039 00000-0 32419-4 0 4168 2 22825 098.6180 122.3553 0007307 255.0614 243.5807 14.29571744 30099 IO-26 1 22826U 93061D 13178.84026499 .00000032 00000-0 29640-4 0 1735 2 22826 098.6121 123.0373 0007918 246.2623 170.6450 14.29856946 30288 GO-32 1 25397U 98043D 13172.48778259 .00000021 00000-0 27354-4 0 993 2 25397 098.4148 140.0585 0000078 060.8594 049.4109 14.23345711776550 NO-44 1 26931U 01043C 13178.68673985 .00000029 00000-0 43364-4 0 3585 2 26931 067.0506 232.4432 0007858 278.9151 227.0106 14.29935242612927 SO-50 1 27607U 02058C 13178.16386068 .00000261 00000-0 61252-4 0 984 2 27607 064.5558 233.7655 0043833 161.0454 257.3078 14.72977106565181 CO-55 1 27844U 03031E 13178.63205074 .00000123 00000-0 76473-4 0 6803 2 27844 098.7006 187.5523 0009212 212.1951 261.8542 14.21233174518216 CO-57 1 27848U 03031J 13178.57039650 .00000108 00000-0 69881-4 0 6252 2 27848 098.7093 187.0094 0009075 218.3657 287.9827 14.20957306518137 AO-51 1 28375U 04025K 13178.46661330 .00000113 00000-0 46858-4 0 5902 2 28375 098.2014 133.5131 0082825 345.8931 127.9863 14.41132173472811 CP3 1 31129U 07012N 13172.39553471 .00000764 00000-0 18067-3 0 4882 2 31129 097.8974 164.7946 0101221 055.0257 053.8658 14.53684736327600 CO-65 1 32785U 08021C 13178.83674692 .00000577 00000-0 75687-4 0 6680 2 32785 097.7511 236.0682 0012824 270.5479 201.4446 14.83937250279455 PRISM 1 33493U 09002B 13178.78606578 .00003062 00000-0 35525-3 0 9332 2 33493 098.2174 336.0642 0018759 154.8024 205.4103 14.86092794239495 SOHLA-1 1 33496U 09002E 13178.14179731 .00000246 00000-0 49095-4 0 803 2 33496 098.1359 294.1347 0005190 291.2872 161.7250 14.70311004237339 SO-67 1 35870U 09049F 13178.85652896 .00005333 00000-0 20211-3 0 1854 2 35870 097.1899 207.2230 0000670 007.2567 118.2917 15.27291437209881 TISAT-1 1 36799U 10035E 13178.84343627 .00002048 00000-0 25590-3 0 2025 2 36799 098.0343 263.5965 0015369 038.5970 321.6306 14.83395648160150 STUDSAT 1 36801U 10035G 13172.14905029 .00006423 00000-0 69632-3 0 6464 2 36801 098.0463 260.0384 0011881 043.3614 017.6697 14.88496437159312 ALMASAT-1 1 38078U 12006B 13178.72490866 .00016947 00000-0 42848-3 0 3841 2 38078 069.4700 176.5547 0691521 133.7707 232.2808 14.25497089 70743 XATCOBEO 1 38082U 12006F 13178.77179703 .00056739 34276-5 11077-2 0 2685 2 38082 069.4723 150.4712 0566872 119.4150 312.1214 14.57336494 71467 SOMP 1 39135U 13015F 13172.41214188 .00001931 00000-0 16640-3 0 1361 2 39135 064.8774 195.3138 0012896 206.9121 153.1331 15.00302082 9463 CUBEBUG-1 1 39153U 13018D 13172.40533395 .00000793 00000-0 12126-3 0 1660 2 39153 098.0738 248.1537 0019749 071.9187 288.4180 14.76451900 8300 ESTCUBE-1 1 39161U 13021C 13178.79006426 .00000956 00000-0 17151-3 0 1384 2 39161 098.1267 256.9916 0011480 080.9719 279.2787 14.68992700 7556 NOAA-10 1 16969U 86073A 13178.50817872 .00000045 00000-0 35796-4 0 4047 2 16969 098.5452 206.1220 0011915 209.8939 300.9609 14.27647529393410 NOAA-11 1 19531U 88089A 13178.27450666 .00000016 00000-0 30720-4 0 4121 2 19531 098.7106 261.0701 0010618 227.9192 164.7431 14.15019446277554 NOAA-12 1 21263U 91032A 13178.28837764 .00000038 00000-0 34666-4 0 8768 2 21263 098.6968 203.5946 0014023 185.8051 234.6455 14.25572721149996 MET-3/5 1 21655U 91056A 13178.42961790 -.00000040 00000-0 -13547-3 0 7232 2 21655 082.5557 247.0568 0014664 104.7451 255.5298 13.17048616 51287 MET-2/21 1 22782U 93055A 13178.82363285 .00000030 00000-0 13746-4 0 7749 2 22782 082.5503 094.4855 0022689 175.9279 243.6940 13.83710032 1117 OKEAN-4 1 23317U 94066A 13178.44606365 .00000613 00000-0 69593-4 0 2545 2 23317 082.5384 040.1940 0021213 188.1826 264.8732 14.84508074 10463 NOAA-14 1 23455U 94089A 13178.32929441 -.00000078 00000-0 -17903-4 0 3617 2 23455 098.8027 262.6149 0008697 334.3840 067.0407 14.13912213953806 NOAA-15 1 25338U 98030A 13178.48565034 .00000141 00000-0 78855-4 0 7818 2 25338 098.7246 168.6344 0011928 098.8838 053.7239 14.25235010786313 RESURS 1 25394U 98043A 13178.82666410 -.00000026 00000-0 66208-5 0 4070 2 25394 098.3618 154.1559 0001388 164.3225 255.0235 14.24332738777878 FENGYUN1 1 25730U 99025A 13178.54573712 .00000332 00000-0 21021-3 0 9038 2 25730 098.8772 137.9298 0026371 022.1263 095.3461 14.10559242727506 OKEAN-0 1 25860U 99039A 13178.50404453 .00000288 00000-0 50724-4 0 9806 2 25860 097.9904 140.8154 0002171 108.1122 003.2430 14.74626501749873 NOAA-16 1 26536U 00055A 13178.24792622 .00000062 00000-0 57609-4 0 2606 2 26536 099.0422 231.1138 0011640 107.8886 291.7152 14.12889948657996 NOAA-17 1 27453U 02032A 13178.48190106 .00000072 00000-0 48621-4 0 1779 2 27453 098.3123 192.0176 0012862 132.7874 024.9855 14.24599029572187 NOAA-18 1 28654U 05018A 13178.50343316 -.00000002 00000-0 24339-4 0 6641 2 28654 099.0997 146.8686 0014520 175.6269 291.1618 14.11832839417513 NOAA-19 1 33591U 09005A 13178.46004411 .00000142 00000-0 10260-3 0 8476 2 33591 098.9031 120.4440 0014829 044.9844 092.6968 14.11518447225943 HUBBLE 1 20580U 90037B 13178.14488461 .00001121 00000-0 67609-4 0 2697 2 20580 028.4688 207.5478 0003348 092.3113 309.9967 15.03717898 71193 ISS 1 25544U 98067A 13178.90545139 .00011628 00000-0 20783-3 0 774 2 25544 051.6510 055.2095 0009047 104.1018 077.9382 15.50461566836362 CO-58 1 28895U 05043F 13178.14838201 .00000420 00000-0 94050-4 0 5085 2 28895 097.8697 032.9849 0018605 054.3923 305.9009 14.61143563408395 FALCON 1 30776U 07006E 13172.35907185 .00003480 00000-0 20498-3 0 6389 2 30776 035.4301 176.6150 0001827 309.8416 050.2640 15.10721247346051 MAST 1 31126U 07012K 13178.04595935 .00000507 00000-0 12227-3 0 7877 2 31126 097.8815 173.4042 0093472 022.9448 008.7667 14.54598020328755 CAPE1 1 31130U 07012P 13171.97032159 .00000745 00000-0 17692-3 0 7900 2 31130 097.8980 164.0291 0101692 057.2705 303.8246 14.53507858327328 COMPASS 1 32787U 08021E 13178.17330438 .00001492 00000-0 17849-3 0 6598 2 32787 097.7516 236.4780 0013130 269.4567 090.5144 14.85571405279440 AAUSAT2 1 32788U 08021F 13178.71749618 .00001287 00000-0 15301-3 0 6451 2 32788 097.7525 237.6452 0012698 266.7355 093.2408 14.86041704279564 DO-64 1 32789U 08021G 13178.25770325 .00003944 00000-0 42774-3 0 6737 2 32789 097.7677 241.0301 0012121 259.8006 144.2357 14.88694333279623 CO-66 1 32791U 08021J 13172.15551588 .00001298 00000-0 15943-3 0 6380 2 32791 097.7524 229.9747 0013561 292.5237 123.4789 14.84679213278460 RS-30 1 32953U 08025A 13178.76545552 .00000010 00000-0 00000 0 0 9783 2 32953 082.5056 061.6190 0017419 207.6456 152.3698 12.43034547231222 METEOR-M 1 35865U 09049A 13178.78120747 -.00000005 00000-0 17244-4 0 5720 2 35865 098.6017 230.9447 0003289 050.9119 309.2348 14.21888762195973 RS-38 1 35869U 09049E 13178.74233000 .00000043 00000-0 38651-4 0 5318 2 35869 098.5954 230.8189 0005538 046.8239 313.3408 14.22134314195997 JUGNU 1 37839U 11058B 13177.49543795 .00000345 00000-0 42503-4 0 4131 2 37839 019.9602 250.3868 0019317 026.1270 089.8129 14.12163284 88218 SRMSAT 1 37841U 11058D 13177.49284749 .00000326 00000-0 34589-4 0 4151 2 37841 019.9710 262.6427 0012057 339.8260 122.6593 14.10231862 88087 RAX-2 1 37853U 11061D 13172.48608235 .00004802 00000-0 36472-3 0 5316 2 37853 101.7126 028.1137 0234994 015.2483 045.4470 14.83724074 89081 AUBIESAT 1 37854U 11061E 13172.18115231 .00005370 00000-0 39834-3 0 5263 2 37854 101.7162 028.5423 0234879 014.7149 097.8578 14.84440463 89054 HRBE 1 37855U 11061F 13178.58433101 .00003659 00000-0 27634-3 0 5301 2 37855 101.7155 037.6807 0235695 356.8280 081.5658 14.84157400 89995 RS-39 1 38051U 11062C 13175.94515448 .00012668 00000-0 40297-3 0 5527 2 38051 051.6338 173.1243 0010666 298.5424 104.5026 15.32905070 78970 E-STAR 1 38079U 12006C 13178.77625615 .00035458 00000-0 73032-3 0 2430 2 38079 069.4740 157.2829 0605911 123.2170 308.9358 14.47743089 71271 GOLIAT 1 38085U 12006J 13178.86995484 .00035945 30469-5 75686-3 0 1569 2 38085 069.4695 159.3079 0615965 124.2306 321.6837 14.45592509 71225 HORYU-2 1 38340U 12025D 13172.25296520 .00001070 00000-0 18279-3 0 5313 2 38340 098.2127 119.9390 0011462 236.7563 123.2549 14.70970199 58711 RS-40 1 38736U 12041D 13175.47851411 .00000010 00000-0 00000 0 0 3032 2 38736 082.4779 150.5786 0020642 314.5084 045.4315 12.42868763 41157 PROITERES 1 38756U 12047B 13172.52669725 .00000402 00000-0 68807-4 0 8852 2 38756 098.2523 249.6505 0013920 092.2585 268.0220 14.74239120 42039 RAIKO 1 38852U 98067CN 13176.73066992 .00225347 00000-0 96892-3 0 2629 2 38852 051.6378 043.9203 0006461 073.5795 286.5739 15.83832567 41229 FITSAT 1 1 38853U 98067CP 13178.70064846 .00833104 39652-3 86253-3 0 2876 2 38853 051.6380 025.4923 0005405 272.5027 087.4810 16.09993790 41709 TechEdSat 1 38854U 98067CQ 13124.93253577 .11592855 12481-4 94246-3 0 2908 2 38854 051.6449 297.0261 0010505 310.8629 049.0629 16.38844728 33294 F 1 1 38855U 98067CR 13129.77714356 .27424026 12535-4 30797-3 0 2871 2 38855 051.5085 272.4145 0008326 194.2908 166.5495 16.49710473 33949 WeWish 1 38856U 98067CS 13069.98095549 .16701328 12537-4 10063-2 0 2487 2 38856 051.6166 215.0521 0008325 316.0438 044.8765 16.41348316 24586 OSSI-1 1 39131U 13015B 13176.33948492 .00070935 69434-5 10000-3 0 54 2 39131 064.8570 159.2668 0097815 021.9527 338.6478 15.96902042 10448 BEESAT-3 1 39134U 13015E 13178.80998513 .00003599 00000-0 29783-3 0 1746 2 39134 064.8755 175.2134 0012153 206.5566 153.4930 15.00403763 10423 BEESAT-2 1 39136U 13015G 13172.41122718 .00001990 00000-0 17101-3 0 1514 2 39136 064.8775 195.3101 0012903 206.8774 153.1679 15.00322906 9469 /EX